Location: New Town
(33.2710°N, 90.7534°W)
Time: 13:00:51
(UTC+00:00)

Explorer 11/Cluster Stage 4 - Pass Details

Date: 22 May 2021
Orbit: 467 x 1257 km, 28.8° (Epoch: 14 June)

Event Time Altitude Azimuth Distance (km) Brightness Sun altitude
Rises 05:42:50 0° 260° (W) 4,182 10.3 -36.1°
Enters shadow 05:43:15 - 259° (W) 4,091 10.2 -36.1°
Reaches altitude 10° 05:48:53 10° 228° (SW) 3,215 - -36.2°
Maximum altitude 05:50:39 11° 215° (SW) 3,138 - -36.2°
Drops below altitude 10° 05:52:24 10° 202° (SSW) 3,176 - -36.3°
Sets 05:58:15 0° 168° (SSE) 4,011 - -36.3°
